Location: Sebastopol
(38.4021°N, 122.8239°W)
Time: 14:31:26
(UTC+00:00)

Cosmos 2098 Rocket - Pass Details

Date: 29 October 2020
Orbit: 366 x 1184 km, 82.9° (Epoch: 30 November)

Event Time Altitude Azimuth Distance (km) Brightness Sun altitude
Rises 13:58:12 0° 196° (SSW) 3,759 7.0 -7.9°
Reaches altitude 10° 14:01:02 10° 200° (SSW) 2,699 6.2 -7.3°
Maximum altitude 14:07:03 56° 278° (W) 980 3.8 -6.2°
Drops below altitude 10° 14:11:53 10° 356° (N) 2,171 5.7 -5.2°
Sets 14:13:58 0° 1° (N) 2,970 6.4 -4.8°
